Cosmos 1869 Rocket - Orbit

View from above orbital plane
View from above orbital plane
View from above satellite
View from above satellite

Ground track
Ground track

The orbit data is extracted from the following two-line orbital elements,

1 18215U 87062B   13138.85338789  .00000419  00000-0  49463-4 0   352
2 18215 082.5142 239.5841 0020261 357.0044 152.1558 14.82176438395128
Epoch (UTC): 18 May 2013 20:28:52
Eccentricity: 0.0020261
inclination: 82.5142°
perigee height: 608 km
apogee height: 636 km
right ascension of ascending node: 239.5841°
argument of perigee: 357.0044°
revolutions per day: 14.82176438
mean anomaly at epoch: 152.1558°
orbit number at epoch: 39512

The dashed part of the orbit path shows where the satellite is in the earth's shadow,  

Developed and maintained by Chris Peat, Heavens-Above GmbH. Please read the updated FAQ before sending e-mail. Imprint. DLR